Home > Weather > Guangzhou > Past weeks

Flag for China Past Weather in Guangzhou, Guangdong, China — Yesterday and Last 2 Weeks

Now
93 °F

Clear.


Feels Like: 103 °F
Forecast: 79 / 97 °F
Wind: 3 mph from Southeast

Location: Canton Airport

Current Time: Jul 24, 2016 at 8:50:41 PM

Latest Report: Jul 24, 2016 at 8:00 PM


Visibility: 10 mi

Pressure: 29.71 "Hg

Humidity: 53%

Dew Point: 73 °F

Location of GuangzhouLocation

Past Weather in Guangzhou — Graph

°F

Guangzhou Temperature Yesterday

Maximum temperature yesterday: 97 °F (at 2:00 PM)
Minimum temperature yesterday: 81 °F (at 5:30 AM)
Average temperature yesterday: 90 °F

High & Low Weather Summary for the Past Weeks

 TemperatureHumidityPressure
High99 °F (Jul 9, 7:00 PM)100% (Jul 13, 8:00 AM)29.86 "Hg (Jul 13, 8:00 AM)
Low75 °F (Jul 14, 3:00 PM)39% (Jul 22, 5:00 PM)29.45 "Hg (Jul 9, 7:00 PM)
Average85 °F76%29.70 "Hg
* Reported Jul 9 7:00 PM — Jul 24 7:30 PM, Guangzhou, Weather by CustomWeather, © 2016

Note: Actual official high and low records may vary slightly from our data, if they occured in-between our weather recording intervals... More about our weather records

Advertising

Guangzhou Weather History for the Previous 24 Hours

Scroll right to see more
 ConditionsComfort  
Time TempWeatherWind HumidityBarometerVisibility
7:30 PM
Sun, Jul 24
93 °FClear.3 mph53%29.71 "Hg10 mi
7:00 PM95 °FSunny.3 mph47%29.68 "Hg10 mi
6:30 PM95 °FSunny.3 mph47%29.68 "Hg10 mi
6:00 PM97 °FSunny.3 mph42%29.68 "Hg10 mi
5:30 PM97 °FSunny.3 mph42%29.68 "Hg10 mi
5:00 PM97 °FScattered clouds.1 mph44%29.68 "HgN/A
4:30 PM97 °FScattered clouds.6 mph42%29.68 "HgN/A
4:00 PM99 °FScattered clouds.1 mph39%29.68 "HgN/A
3:30 PM99 °FScattered clouds.3 mph39%29.71 "HgN/A
3:00 PM99 °FScattered clouds.3 mph39%29.71 "HgN/A
2:30 PM97 °FScattered clouds.3 mph44%29.71 "HgN/A
2:00 PM97 °FScattered clouds.3 mph42%29.71 "HgN/A
1:30 PM99 °FScattered clouds.3 mph42%29.74 "HgN/A
1:00 PM97 °FScattered clouds.6 mph44%29.74 "HgN/A
12:30 PM97 °FScattered clouds.3 mph44%29.74 "HgN/A
12:00 PM95 °FScattered clouds.3 mph50%29.77 "HgN/A
11:30 AM95 °FScattered clouds.3 mph53%29.77 "HgN/A
11:00 AM93 °FPassing clouds.3 mph56%29.77 "HgN/A
10:30 AM93 °FPassing clouds.3 mph56%29.77 "HgN/A
10:00 AM91 °FPassing clouds.3 mph59%29.80 "HgN/A
9:30 AM90 °FPassing clouds.3 mph63%29.80 "HgN/A
9:00 AM90 °FPassing clouds.3 mph63%29.80 "HgN/A
8:30 AM88 °FPassing clouds.3 mph66%29.80 "HgN/A
8:00 AM88 °FPassing clouds.3 mph66%29.80 "HgN/A
7:30 AM86 °FPassing clouds.3 mph66%29.80 "HgN/A
7:00 AM84 °FSunny.1 mph70%29.80 "Hg10 mi
6:30 AM82 °FSunny.1 mph74%29.77 "Hg10 mi
6:00 AM82 °FSunny.1 mph70%29.77 "Hg10 mi
5:30 AM84 °FPassing clouds.3 mph66%29.77 "HgN/A
5:00 AM84 °FPassing clouds.3 mph66%29.77 "HgN/A
4:30 AM84 °FPassing clouds.3 mph66%29.77 "HgN/A
4:00 AM82 °FPassing clouds.3 mph79%29.77 "HgN/A
3:30 AM86 °FClear.3 mph70%29.77 "Hg10 mi
3:00 AM86 °FClear.6 mph70%29.77 "Hg10 mi
2:30 AM86 °FClear.6 mph66%29.77 "Hg10 mi
2:00 AM88 °FClear.6 mph66%29.77 "Hg10 mi
1:30 AM86 °FPassing clouds.3 mph75%29.74 "HgN/A
1:00 AM88 °FClear.1 mph75%29.74 "Hg10 mi
12:30 AM88 °FClear.1 mph75%29.74 "Hg10 mi
12:00 AM88 °FPassing clouds.3 mph70%29.74 "HgN/A
11:30 PM
Sat, Jul 23
88 °FPassing clouds.6 mph70%29.77 "HgN/A
11:00 PM88 °FPassing clouds.8 mph70%29.74 "HgN/A
10:30 PM90 °FPassing clouds.8 mph67%29.74 "HgN/A
10:00 PM88 °FClear.6 mph70%29.74 "Hg10 mi
9:30 PM90 °FClear.3 mph71%29.74 "Hg10 mi
9:00 PM90 °FClear.3 mph67%29.71 "Hg10 mi
8:30 PM91 °FClear.6 mph59%29.71 "Hg10 mi
8:00 PM93 °FPassing clouds.3 mph53%29.71 "HgN/A
Weather by CustomWeather, © 2016

See weather overviewHow to use our weather pages